Simultaneous Nadir Overpasses (SNOs) Predictions

Prediction of SNOs between NOAA-19 and NPP Satellite Orbit:

Table of predicted SNOs for the next 14.0 days since TLE Epoch: 5/19/2013
Index Date (NOAA-19) Time (NOAA-19) Lat,Lon (NOAA-19) SZA (NOAA-19 ) Date (NPP) Time (NPP) Lat,Lon (NPP) SZA (NPP ) Distance(km) Time Diff (sec)
1 05/20/2013 09:14:03 80.90, -10.70 64.42 05/20/2013 09:15:00 80.90, -10.76 64.40 1.01 57
2 05/20/2013 10:05:00 -80.90, 156.67 115.61 05/20/2013 10:05:44 -80.90, 156.73 115.64 1.01 44
3 05/20/2013 10:56:05 80.87, -35.28 64.27 05/20/2013 10:56:28 80.87, -35.44 64.28 2.90 23
4 05/20/2013 11:47:02 -80.86, 132.08 115.76 05/20/2013 11:47:12 -80.86, 132.03 115.76 0.87 10
5 05/20/2013 12:38:09 80.86, -60.59 64.22 05/20/2013 12:37:57 80.86, -60.49 64.21 1.81 12
6 05/20/2013 13:29:04 -80.82, 107.49 115.91 05/20/2013 13:28:40 -80.83, 107.34 115.88 2.74 24
7 05/20/2013 14:20:11 80.82, -85.18 64.07 05/20/2013 14:19:25 80.82, -85.19 64.09 0.07 46
8 05/20/2013 15:11:08 -80.82, 82.18 115.96 05/20/2013 15:10:09 -80.81, 82.29 115.95 1.92 59
9 06/01/2013 19:48:16 -80.92, 10.40 117.57 06/01/2013 19:49:24 -80.92, 10.34 117.60 1.17 68
10 06/01/2013 20:39:20 80.91, 177.84 62.40 06/01/2013 20:40:08 80.90, 178.01 62.34 3.14 48
11 06/01/2013 21:30:18 -80.88, -14.19 117.72 06/01/2013 21:30:52 -80.89, -14.35 117.71 2.89 34
12 06/01/2013 22:21:23 80.89, 152.88 62.30 06/01/2013 22:21:37 80.89, 152.96 62.29 1.44 14
13 06/01/2013 23:12:21 -80.88, -39.51
